Location: Anciles
(42.5833°N, 0.5167°E)
Time: 08:32:05
(UTC+00:00)

Daily predictions for brighter satellites

Satellite Brightness Start Highest point End
(mag) Time Altitude Azimuth Time Altitude Azimuth Time Altitude Azimuth
ATLAS 2AS CENTAUR R/B 4.1 16:46:47 10° WSW 16:54:12 40° NW 17:01:38 10° NNE
Okean O Rocket 2.2 16:53:14 10° S 16:57:33 64° W 17:01:52 10° NNW
CZ-4B R/B 3.7 16:54:44 10° S 17:00:00 64° WSW 17:05:23 10° NNW
Lacrosse 5 rocket 1.9 16:57:20 10° WSW 17:01:36 56° NW 17:05:39 10° NE
Cosmos 1666 3.9 17:00:02 10° NNE 17:02:53 20° ENE 17:05:42 10° ESE
Cosmos 2242 Rocket 4.3 16:59:55 10° SSE 17:04:03 35° E 17:08:13 10° NNE
Cosmos 1707 Rocket 4.4 17:03:13 10° SSW 17:07:36 56° W 17:12:01 10° N
Aureole 1 Rocket 3.6 17:07:01 10° SSE 17:09:17 20° E 17:11:21 11° NE
SL-4 R/B 3.2 17:06:25 10° WNW 17:09:41 28° NNW 17:13:10 10° NE
CZ-4 R/B 2.9 17:08:57 10° E 17:11:04 14° ENE 17:13:11 10° NNE
Cosmos 2278 Rocket 2.2 17:07:24 10° NNW 17:13:05 73° ENE 17:18:43 10° SSE
STARLINK-52 4.1 17:10:11 10° SSW 17:13:24 35° SE 17:16:09 13° ENE
Cosmos 2360 Rocket 4.4 17:10:53 10° W 17:14:53 19° NW 17:18:54 10° N
Shenzhou-11 Module 1.6 17:12:08 10° W 17:14:54 87° NNE 17:17:18 12° E
Okean-O 3.1 17:11:40 10° SE 17:15:45 37° ENE 17:19:50 10° N
SMAP 3.0 17:13:08 10° SSE 17:17:45 72° ENE 17:22:25 10° N
NOAA 12 4.3 17:15:04 10° SE 17:20:09 49° ENE 17:25:14 10° N
STARLINK-29 3.6 17:18:08 10° SSW 17:21:31 47° SE 17:24:05 16° ENE
USA 215 3.9 17:18:19 10° NE 17:24:35 49° NNW 17:30:48 10° WSW
PSLV R/B 4.4 17:20:54 10° N 17:25:01 63° WNW 17:29:04 10° SSW
Cosmos 2369 Rocket 4.0 17:23:31 10° NNE 17:25:11 11° NE 17:25:28 11° NE
SL-16 R/B 3.0 17:21:47 10° SSE 17:26:43 31° ESE 17:30:56 13° NE
Cosmos 1743 4.1 17:25:48 10° NNE 17:28:30 18° ENE 17:31:12 10° ESE
ISS -3.6 17:25:16 10° WNW 17:28:38 77° SW 17:31:59 10° SE
Cosmos 1908 Rocket 3.8 17:24:37 10° N 17:28:52 46° ENE 17:33:02 10° SSE
Cosmos 1900 4.2 17:25:38 10° NNW 17:30:31 68° ENE 17:35:21 10° SE
Cosmos 2251 Rocket 3.8 17:25:28 10° SSW 17:30:45 70° WNW 17:36:03 10° NNE
COSMO-SKYMED 1 3.3 17:29:39 10° NNE 17:33:35 33° E 17:37:31 10° SSE
AQUARIUS 4.2 17:30:55 10° SSE 17:35:25 83° WSW 17:39:57 10° NNW
Cosmos 2333 Rocket 3.7 17:30:28 10° WSW 17:35:38 34° NW 17:40:52 10° N
STARLINK-60 3.1 17:33:35 10° WSW 17:36:58 76° NW 17:38:58 22° NE
Cosmos 2237 Rocket 2.3 17:31:22 10° SSW 17:37:04 81° WNW 17:42:48 10° NNE
Cosmos 1812 3.6 17:34:39 10° SSW 17:38:25 50° W 17:42:11 10° N
Nadezhda 4 Rocket 4.1 17:32:09 10° S 17:38:29 83° W 17:44:50 10° N
YAOGAN 1 3.5 17:35:23 10° ESE 17:38:53 25° ENE 17:42:25 10° NNE
Envisat 2.9 17:37:18 10° SSE 17:42:18 65° ENE 17:47:22 10° N
Okean 1-7 3.3 17:38:46 10° SSE 17:42:51 43° E 17:46:42 12° NNE
YAOGAN 6 3.0 17:39:55 10° SE 17:43:11 38° ENE 17:46:32 10° N
CORIOLIS 4.3 17:38:30 10° S 17:43:57 80° WSW 17:49:25 10° NNW
Cosmos 292 Rocket 3.7 17:40:20 10° NNW 17:45:11 65° ENE 17:50:00 10° SSE
COBE Rocket 4.3 17:43:42 10° N 17:48:18 62° WNW 17:52:55 10° SSW
Cosmos 1140 Rocket 4.3 17:44:34 10° SSE 17:48:54 28° E 17:50:28 24° ENE
Cosmos 2219 Rocket 4.0 17:45:25 10° WSW 17:50:07 27° NW 17:54:53 10° N
Cosmos 407 Rocket 3.8 17:47:00 10° S 17:51:54 45° ESE 17:55:05 21° NE
USA 267 3.6 17:51:29 10° SE 17:57:59 67° SW 18:04:31 10° NW
Cosmos 2026 Rocket 3.8 17:54:33 10° S 18:00:33 67° E 18:06:34 10° NNE
Cosmos 1943 Rocket 3.4 17:59:23 10° N 18:03:07 23° NE 18:03:07 23° NE
BREEZE-M R/B 3.7 18:04:24 10° WNW 18:08:41 29° N 18:09:04 29° NNE
Cosmos 1867 4.1 18:04:51 10° NNW 18:09:53 36° NE 18:10:41 34° ENE
CSL-04 Rocket 3.6 18:05:25 10° SSE 18:10:32 54° ENE 18:15:42 10° N
Cosmos 1441 Rocket 3.1 18:09:40 10° N 18:13:30 85° W 18:17:16 10° S
Cosmos 921 Rocket 2.8 18:10:37 10° NNW 18:14:54 71° ENE 18:19:14 10° SSE
Cosmos 2297 3.6 18:11:21 10° NNW 18:17:05 74° ENE 18:22:43 10° SSE
Cosmos 1417 Rocket 4.5 18:13:19 10° N 18:19:20 54° ENE 18:25:19 10° SSE
SKYMED 2 3.7 18:18:20 16° N 18:21:49 73° WNW 18:26:08 10° SSW
Cosmos 2221 Rocket 3.8 18:18:47 10° SSE 18:22:36 48° ESE 18:22:36 48° ESE
Cosmos 1782 Rocket 3.5 18:19:11 10° N 18:23:33 81° W 18:27:52 10° S
Sich 1 Rocket 3.4 18:20:48 10° N 18:25:13 79° E 18:29:36 10° S
FALCON 9 DEB 4.0 18:22:59 10° WSW 18:26:19 41° NNW 18:26:23 41° NNW
CSL-04 Debris 4.0 18:21:28 10° SSE 18:26:55 77° ENE 18:32:22 10° N
Meteor 1-18 Rocket 4.1 18:21:52 10° S 18:27:36 80° E 18:31:59 18° NNE
Genesis I 3.2 18:29:21 10° NW 18:33:13 74° WSW 18:33:25 72° SSW
Cosmos 1655 Rocket 4.0 18:27:44 10° S 18:33:55 59° E 18:37:01 30° NNE
STARLINK-43 4.5 18:36:18 10° SW 18:38:45 37° SSW 18:38:45 37° SSW
Lacrosse 5 rocket 3.6 18:38:58 10° WNW 18:41:30 15° NNW 18:41:49 15° NNW
DMSP B5D1-3 4.3 18:44:09 70° ENE 18:44:35 76° ESE 18:49:41 10° S
Cosmos 1190 Rocket 4.2 18:40:06 10° SSW 18:45:17 70° WNW 18:47:07 40° N
CZ-4 R/B 2.3 18:41:59 10° S 18:45:44 45° W 18:49:28 10° NNW
Meteor 2-9 Rocket 4.1 18:40:49 10° N 18:46:43 74° E 18:52:29 10° SSE
Cosmos 676 Rocket 3.8 18:42:01 10° S 18:46:54 72° SE 18:46:54 72° SE
Okean 1 4.3 18:45:04 10° SSW 18:48:54 46° WNW 18:49:42 40° NW
NOAA 11 4.1 18:44:10 10° SSE 18:49:37 89° WSW 18:55:08 10° NNW
SL-4 R/B 4.1 18:47:03 10° NW 18:48:47 19° NNW 18:48:47 19° NNW
Cosmos 1954 Rocket 4.0 18:51:00 10° SSW 18:55:30 68° S 18:55:30 68° S
CZ-4C R/B 4.1 19:05:49 10° S 19:06:34 14° S 19:06:34 14° S
Cosmos 2369 Rocket 3.6 19:04:53 10° NNW 19:07:18 26° N 19:07:18 26° N
SL-16 R/B 3.3 19:05:23 10° SW 19:10:41 40° WNW 19:12:51 29° NNW
YAOGAN 1 4.3 19:11:02 10° SSW 19:14:51 31° W 19:18:43 10° NNW
S3M 4.2 19:14:21 10° NNW 19:20:30 65° W 19:26:32 10° S
Lacrosse 5 4.0 19:21:02 10° SSW 19:22:23 18° SSW 19:22:23 18° SSW
Meteor 2-4 Rocket 4.4 19:21:49 10° SSW 19:26:24 53° SW 19:26:24 53° SW
Cosmos 2266 Rocket 4.4 19:22:48 10° S 19:27:43 55° SSW 19:27:43 55° SSW
Cosmos 2344 4.3 19:30:44 10° NNW 19:40:26 66° NE 19:40:45 65° ENE
Cosmos 1943 Rocket 4.0 19:42:28 10° NNW 19:44:42 24° NW 19:44:42 24° NW
CZ-3B R/B 4.4 20:02:33 10° SSW 20:04:32 17° SSW 20:04:32 17° SSW
